Weather in Mecha

Russia / Perm Krai     57°15′53″N   57°30′04″E
temp.,
°C
wind,
m/s
gust,
m/s
humid.,
%
clouds,
%
prec.,
mm/h
press.,
hPa
HPBL,
m
2 march, tue
tue223:00−18ssw239635 0.0 101620
02:00−19ssw349825 0.0 101475
05:00−19ssw4119760 0.0 1012278
08:00−18s61393100 0.0 1008396
11:00−14s71493100 0.2 1006484
14:00−12ssw71492100 1.1 1003638
17:00−12ssw61293100 1.9 1001673
20:00−11s51294100 1.2 999625
3 march, wed
wed323:00−10s51294100 2.3 998576
02:00−9s41095100 1.2 995519
05:00−7sse2696100 3.4 995214
08:00−6s1197100 0.9 99432
11:00−5wnw3595100 0.9 995291
14:00−2w3593100 0.1 996455
17:00−2w3590100 0.1 996539
20:00−4wsw3595100 0.0 997110
4 march, thu
thu423:00−6sw3495100 0.1 99796
02:00−6wsw359698 0.2 997135
05:00−7nw489599 0.6 998314
08:00−10wnw489498 0.2 999244
11:00−10wsw479398 0.3 1001330
14:00−7wsw698996 0.1 1001621
17:00−6sw698998 0.2 1001898
20:00−9ssw5129397 0.1 1000389
5 march, fri
fri523:00−7ssw5139198 0.1 999652
02:00−7ssw71593100 0.2 994761
05:00−4ssw81791100 1.1 991978
08:00−1wsw91693100 0.8 9891119
11:00−3wsw11177492 2.3 9911385
14:00−4w10168439 0.1 9951439
17:00−5w8138370 0.2 9991078
20:00−9w4129299 0.1 1003468
6 march, sat
sat623:00−12w3795100 0.1 1006131
02:00−14w3596100 0.0 100899
05:00−17w3397100 0.1 101041
08:00−20sw1210087 0.0 101120
11:00−14se119194 0.0 1010174
14:00−10ese3486100 0.0 1006409
17:00−8ene4795100 0.7 1001490
20:00−9nne51095100 3.1 998484